This demonstration page uses our WeatherBlox Daily Observations layout. Learn more.

Left ArrowRight Arrow

Hourly Observations for February 2, 2018

Temp ( °F °C ) Dew Point ( °F °C ) Humidity (%) Winds ( mph kmh ) Pressure ( in mb ) Visibility ( mi km ) Precip ( " mm )
12:15 am 00:15 Cloudy with Light Rain 39 4 37 3 93 93 NNW 6 9 29.97 1015 5 8.0467 0.01 0.254
12:35 am 00:35 Cloudy with Light Rain 39 4 37 3 93 93 Calm 29.94 1014 10 16.0934 0.02 0.508
12:55 am 00:55 Cloudy 37 3 37 3 100 100 WNW 7 11 29.97 1015 10 16.0934 0.02 0.508
1:15 am 01:15 Cloudy 39 4 37 3 93 93 NW 8 13 29.94 1014 10 16.0934 0 0
1:35 am 01:35 Cloudy with Light Rain 41 5 36 2 81 81 NW 12 19 29.97 1015 10 16.0934 0 0
1:55 am 01:55 Cloudy 41 5 36 2 81 81 NW 9 15 29.94 1014 10 16.0934 0 0
2:15 am 02:15 Cloudy 41 5 36 2 81 81 WNW 8 13 29.97 1015 10 16.0934 0 0
2:35 am 02:35 Cloudy with Drizzle 41 5 36 2 81 81 NW 12 19 29.97 1015 10 16.0934 0 0
2:55 am 02:55 Cloudy 41 5 34 1 76 76 NW 15 24 29.97 1015 10 16.0934 0 0
3:15 am 03:15 Cloudy 39 4 34 1 81 81 NW 13 20 29.97 1015 10 16.0934 0 0
3:35 am 03:35 Cloudy 39 4 34 1 81 81 NW 10 17 30 1016 10 16.0934 0 0
3:55 am 03:55 Cloudy 37 3 32 0 81 81 N 10 17 30 1016 10 16.0934 0 0
4:15 am 04:15 Cloudy 37 3 32 0 81 81 NNW 15 24 30.03 1017 10 16.0934 0 0
4:35 am 04:35 Cloudy 36 2 30 -1 81 81 NNW 12 19 30.03 1017 10 16.0934 0 0
4:55 am 04:55 Cloudy 36 2 28 -2 75 75 NW 18 30 30.03 1017 10 16.0934 0 0
5:15 am 05:15 Partly Cloudy 34 1 27 -3 75 75 NNW 17 28 30.06 1018 10 16.0934 0 0
5:35 am 05:35 Clear 34 1 25 -4 70 70 NW 25 41 30.06 1018 10 16.0934 0 0
5:55 am 05:55 Clear 32 0 21 -6 64 64 NW 23 37 30.09 1019 10 16.0934 0 0
6:15 am 06:15 Partly Cloudy 32 0 19 -7 60 60 NW 16 26 30.12 1020 10 16.0934 0 0
6:35 am 06:35 Cloudy 32 0 18 -8 55 55 NW 18 30 30.12 1020 10 16.0934 0 0
6:55 am 06:55 Partly Cloudy 30 -1 18 -8 59 59 NW 14 22 30.15 1021 10 16.0934 0 0
7:15 am 07:15 Clear 30 -1 16 -9 55 55 WNW 10 17 30.15 1021 10 16.0934 0 0
7:35 am 07:35 Partly Cloudy 30 -1 18 -8 59 59 NNW 12 19 30.18 1022 10 16.0934 0 0
7:55 am 07:55 Cloudy 30 -1 18 -8 59 59 NW 20 31 30.18 1022 10 16.0934 0 0
8:15 am 08:15 Cloudy 30 -1 19 -7 64 64 NW 17 28 30.18 1022 10 16.0934 0 0
8:35 am 08:35 Windy with Snow Likely 30 -1 21 -6 69 69 NW 24 39 30.18 1022 10 16.0934 0 0
8:55 am 08:55 Cloudy with Light Snow 28 -2 18 -8 64 64 NNW 17 28 30.21 1023 7 11.26538 0 0
9:15 am 09:15 Mostly Cloudy 28 -2 14 -10 55 55 NW 13 20 30.24 1024 10 16.0934 0 0
9:35 am 09:35 Mostly Cloudy 28 -2 14 -10 55 55 NW 26 43 30.24 1024 10 16.0934 0 0
9:55 am 09:55 Mostly Cloudy 28 -2 14 -10 55 55 NW 28 44 30.24 1024 10 16.0934 0 0
10:15 am 10:15 Mostly Cloudy with Light Snow 28 -2 16 -9 59 59 NNW 24 39 30.27 1025 7 11.26538 0 0
10:35 am 10:35 Partly Cloudy 28 -2 14 -10 55 55 NW 23 37 30.27 1025 10 16.0934 0 0
10:55 am 10:55 Partly Cloudy 30 -1 14 -10 51 51 NNW 22 35 30.27 1025 10 16.0934 0 0
11:15 am 11:15 Cloudy 28 -2 14 -10 55 55 NW 20 31 30.27 1025 10 16.0934 0 0
11:35 am 11:35 Cloudy 28 -2 18 -8 64 64 NNW 23 37 30.27 1025 10 16.0934 0 0
11:55 am 11:55 Cloudy 28 -2 14 -10 55 55 N 20 31 30.3 1026 10 16.0934 0 0
12:15 pm 12:15 Cloudy 27 -3 12 -11 54 54 NW 23 37 30.3 1026 10 16.0934 0 0
12:35 pm 12:35 Cloudy 27 -3 10 -12 50 50 NNW 14 22 30.3 1026 10 16.0934 0 0
12:55 pm 12:55 Cloudy 27 -3 10 -12 50 50 NNW 20 31 30.3 1026 10 16.0934 0 0
1:15 pm 13:15 Mostly Cloudy 27 -3 10 -12 50 50 NNW 16 26 30.3 1026 10 16.0934 0 0
1:35 pm 13:35 Partly Cloudy 28 -2 10 -12 47 47 NW 25 41 30.3 1026 10 16.0934 0 0
1:55 pm 13:55 Mostly Cloudy 28 -2 10 -12 47 47 NW 22 35 30.3 1026 10 16.0934 0 0
2:15 pm 14:15 Mostly Cloudy 27 -3 9 -13 46 46 WNW 24 39 30.3 1026 10 16.0934 0 0
2:35 pm 14:35 Mostly Cloudy 27 -3 9 -13 46 46 WNW 20 31 30.33 1027 10 16.0934 0 0
2:55 pm 14:55 Cloudy 28 -2 9 -13 43 43 NW 21 33 30.33 1027 10 16.0934 0 0
3:15 pm 15:15 Mostly Cloudy 27 -3 7 -14 43 43 NW 24 39 30.33 1027 10 16.0934 0 0
3:35 pm 15:35 Partly Cloudy 27 -3 9 -13 46 46 NW 25 41 30.36 1028 10 16.0934 0 0
3:55 pm 15:55 Mostly Cloudy 27 -3 7 -14 43 43 WNW 24 39 30.36 1028 10 16.0934 0 0
4:15 pm 16:15 Mostly Cloudy 27 -3 7 -14 43 43 NNW 18 30 30.36 1028 10 16.0934 0 0
4:35 pm 16:35 Mostly Cloudy 25 -4 7 -14 46 46 NNW 16 26 30.39 1029 10 16.0934 0 0
4:55 pm 16:55 Mostly Cloudy 25 -4 7 -14 46 46 NW 22 35 30.39 1029 10 16.0934 0 0
5:15 pm 17:15 Mostly Cloudy 23 -5 7 -14 50 50 WNW 17 28 30.39 1029 10 16.0934 0 0
5:35 pm 17:35 Partly Cloudy 23 -5 5 -15 46 46 NW 18 30 30.42 1030 10 16.0934 0 0
5:55 pm 17:55 Partly Cloudy 23 -5 5 -15 46 46 NW 18 30 30.39 1029 10 16.0934 0 0
6:15 pm 18:15 Clear 21 -6 5 -15 49 49 NW 13 20 30.45 1031 10 16.0934 0 0
6:35 pm 18:35 Clear 21 -6 5 -15 49 49 NW 14 22 30.45 1031 10 16.0934 0 0
6:55 pm 18:55 Clear 21 -6 5 -15 49 49 NW 9 15 30.45 1031 10 16.0934 0 0
7:15 pm 19:15 Clear 21 -6 5 -15 49 49 NW 12 19 30.45 1031 10 16.0934 0 0
7:35 pm 19:35 Clear 21 -6 5 -15 49 49 NW 12 19 30.48 1032 10 16.0934 0 0
7:55 pm 19:55 Clear 21 -6 5 -15 49 49 NW 13 20 30.48 1032 10 16.0934 0 0
8:15 pm 20:15 Clear 21 -6 7 -14 54 54 NW 8 13 30.48 1032 10 16.0934 0 0
8:35 pm 20:35 Clear 21 -6 5 -15 49 49 NW 9 15 30.48 1032 10 16.0934 0 0
8:55 pm 20:55 Clear 21 -6 7 -14 54 54 NW 10 17 30.48 1032 10 16.0934 0 0
9:15 pm 21:15 Clear 21 -6 7 -14 54 54 NW 12 19 30.5 1033 10 16.0934 0 0
9:35 pm 21:35 Clear 21 -6 7 -14 54 54 NNW 14 22 30.5 1033 10 16.0934 0 0
9:55 pm 21:55 Clear 21 -6 7 -14 54 54 NW 12 19 30.5 1033 10 16.0934 0 0
10:15 pm 22:15 Partly Cloudy 21 -6 9 -13 58 58 NW 5 7 30.5 1033 10 16.0934 0 0
10:35 pm 22:35 Clear 21 -6 9 -13 58 58 NW 9 15 30.5 1033 10 16.0934 0 0
10:55 pm 22:55 Clear 19 -7 9 -13 63 63 WNW 6 9 30.5 1033 10 16.0934 0 0
11:15 pm 23:15 Mostly Cloudy 18 -8 9 -13 68 68 NW 6 9 30.5 1033 10 16.0934 0 0
11:35 pm 23:35 Mostly Cloudy 18 -8 9 -13 68 68 W 5 7 30.5 1033 10 16.0934 0 0
11:55 pm 23:55 Partly Cloudy 19 -7 9 -13 63 63 W 3 6 30.5 1033 10 16.0934 0 0

Powered by AerisWeather